Volver al catálogo

STARLINK-34449

ActivoComunicacionesVLEO
NORAD 64465·PAYLOAD·🇺🇸 United States

Lanzado Jun 18, 2025 desde Cape Canaveral Space Force Station

Loading…

Próximos Pases (próximas 24 horas)

TLE

ActualizadoSource: CelesTrak SupGP

Época: Sep 15, 2026, 02:42 UTC

1 64465C 25130AD  26258.11298611  .00010324  00000+0  30498-3 0  2582
2 64465  53.1579 284.9682 0001215  97.0663  20.2059 15.34391939    12

Sigue STARLINK-34449 en tiempo real con AllMySat

Download on the App Store